Flag for U.S.A. Weather past 2 weeks in Downey, California, U.S.A.

Now
79 °F

Sunny.


Feels Like: 80 °F
Forecast: 69 / 87 °F
Wind: 10 mph from Northwest

Location: Long Beach Airport

Current Time: Jul 24, 2014 at 9:04:53 PM

Latest Report: Jul 24, 2014 at 7:53 PM


Visibility: 10 mi

Pressure: 29.74 "Hg

Humidity: 50%

Dew point: 59 °F

Location of DowneyLocation

Historic Weather in Downey — Graph

°F

Downey temperature yesterday

Maximum temperature yesterday: 86 °F (at 1:53 PM)
Minimum temperature yesterday: 66 °F (at 4:53 AM)
Average temperature yesterday: 76 °F

Past Weeks' High & Low Weather Summary

 TemperatureHumidityPressure
High91 °F (Jul 24, 2:53 PM)90% (Jul 22, 5:53 AM)30.06 "Hg (Jul 22, 5:53 AM)
Low64 °F (Jul 22, 5:53 AM)33% (Jul 23, 3:53 PM)29.73 "Hg (Jul 24, 5:53 PM)
Average72 °F70%29.96 "Hg
* Reported Jul 9 7:53 PM — Jul 24 7:53 PM, Downey, Weather by CustomWeather, © 2014

Note: Actual official high and low records may vary slightly from our data, if they occured in-between our weather recording intervals... More about our weather records

Advertising

Downey weather history for previous 24 hours

 ConditionsComfort  
Time TempWeatherWind HumidityBarometerVisibility
7:53 PM
Jul 24
79 °FSunny.10 mph50%29.74 "Hg10 mi
6:53 PM82 °FSunny.10 mph48%29.73 "Hg10 mi
5:53 PM86 °FSunny.9 mph37%29.73 "Hg10 mi
4:53 PM87 °FSunny.12 mph37%29.74 "Hg10 mi
3:53 PM90 °FSunny.9 mph35%29.76 "Hg10 mi
2:53 PM91 °FSunny.12 mph34%29.78 "Hg10 mi
1:53 PM88 °FSunny.9 mph40%29.79 "Hg10 mi
12:53 PM84 °FSunny.10 mph48%29.81 "Hg10 mi
11:53 AM83 °FSunny.8 mph51%29.82 "Hg10 mi
10:53 AM81 °FSunny.8 mph54%29.83 "Hg10 mi
9:53 AM80 °FSunny.No wind54%29.84 "Hg10 mi
8:53 AM75 °FSunny.No wind66%29.86 "Hg10 mi
7:53 AM72 °FSunny.No wind71%29.86 "Hg10 mi
6:53 AM68 °FClear.No wind82%29.87 "Hg10 mi
5:53 AM68 °FClear.No wind82%29.86 "Hg10 mi
4:53 AM68 °FClear.No wind78%29.84 "Hg10 mi
3:53 AM67 °FClear.No wind81%29.85 "Hg10 mi
2:53 AM68 °FClear.3 mph78%29.86 "Hg10 mi
1:53 AM69 °FClear.No wind76%29.88 "Hg10 mi
12:53 AM70 °FClear.3 mph73%29.89 "Hg10 mi
11:53 PM
Jul 23
71 °FClear.5 mph68%29.89 "Hg10 mi
10:53 PM71 °FClear.No wind78%29.89 "Hg10 mi
9:53 PM73 °FClear.3 mph71%29.89 "Hg10 mi
Weather by CustomWeather, © 2014

See weather overviewHow to use our weather pages